Location: Quedlinburg
(51.7921°N, 11.1414°E)
Time: 07:24:44
(UTC+02:00)

SO-50 - Pass Details

Date: 12 March 2026
Orbit: 567 x 673 km, 64.6° (Epoch: 13 April)

Event Time Altitude Azimuth Distance (km) Brightness Sun altitude
Rises 21:45:47 0° 271° (W) 2,977 ? -31.1°
Reaches altitude 10° 21:48:28 10° 285° (WNW) 2,082 ? -31.4°
Maximum altitude 21:52:18 24° 339° (NNW) 1,399 ? -31.8°
Enters shadow 21:54:10 19° 12° (NNE) 1,597 ? -32.0°
